Miami, FL

10:09 PM EST on December 13, 2019 (GMT -0500)
Miami International

Weather History for KMIA - October, 2019

Change the Weather History Date:

Friday, October 25, 2019

  Actual Average Record
Temperature  
Mean Temperature 85 °F 78 °F  
Max Temperature 89 °F 85 °F 89 °F (2002)
Min Temperature 80 °F 72 °F 52 °F (1937)
Degree Days  
Heating Degree Days 0 0  
Month to date heating degree days 0 0  
Since 1 July heating degree days 0 0  
Cooling Degree Days 20 13  
Month to date cooling degree days 464 384  
Year to date cooling degree days 4555 3996  
Growing Degree Days 34 (Base 50)    
Moisture  
Dew Point 71 °F    
Average Humidity 65    
Maximum Humidity 74    
Minimum Humidity 56    
Precipitation  
Precipitation 0.03 in 0.15 in 1.58 in (1949)
Month to date precipitation 3.73 5.48  
Year to date precipitation 58.90 55.74  
Snow  
Snow 0.00 in - - ()
Month to date snowfall 0.0  
Since 1 July snowfall 0.0  
Since 1 September snowfall 0.0  
Snow Depth 0.00 in    
Sea Level Pressure  
Sea Level Pressure 30.00 in    
Wind  
Wind Speed 16 mph (East)    
Max Wind Speed 26 mph    
Max Gust Speed 33 mph    
Visibility 10 miles    
Events      
T = Trace of Precipitation, MM = Missing Value Source: NWS Daily Summary

Daily Weather History Graph

Daily Weather History Graph

Search for Another Location

Airport or City:

Astronomy

Oct. 25, 2019 Rise Set
Actual Time 7:25 AM EDT 6:44 PM EDT
Civil Twilight 7:01 AM EDT 7:08 PM EDT
Nautical Twilight 6:34 AM EDT 7:35 PM EDT
Astronomical Twilight 6:07 AM EDT 8:02 PM EDT
Moon 4:33 AM EDT (10/25) 5:22 PM EDT (10/25)
Length of Visible Light 12h 06m
Length of Day
11h 19m
Waning Crescent, 9% of the Moon is Illuminated
Oct 25
Waning Crescent
Oct 27
New
Nov 4
First Quarter
Nov 12
Full
Nov 19
Last Quarter

Hourly Weather History & Observations

Time (EDT) Temp. Heat Index Dew Point Humidity Pressure Visibility Wind Dir Wind Speed Gust Speed Precip Events Conditions
12:53 AM 82.0 °F 87.4 °F 73.0 °F 74% 30.05 in 10.0 mi East 11.5 mph - 0.00 in   Mostly Cloudy
1:53 AM 82.0 °F 86.7 °F 72.0 °F 71% 30.03 in 10.0 mi East 12.7 mph - N/A   Partly Cloudy
2:53 AM 82.0 °F 86.7 °F 72.0 °F 71% 30.01 in 10.0 mi East 13.8 mph - N/A   Partly Cloudy
3:53 AM 82.0 °F 86.7 °F 72.0 °F 71% 30.00 in 10.0 mi East 12.7 mph - N/A   Mostly Cloudy
4:53 AM 82.0 °F 85.9 °F 70.0 °F 67% 30.00 in 10.0 mi East 13.8 mph 21.9 mph N/A   Partly Cloudy
5:53 AM 81.0 °F 84.9 °F 71.1 °F 72% 30.01 in 10.0 mi East 11.5 mph - N/A   Scattered Clouds
6:53 AM 81.0 °F 85.2 °F 72.0 °F 74% 30.01 in 10.0 mi East 13.8 mph - 0.01 in   Partly Cloudy
8:53 AM 84.0 °F 89.6 °F 72.0 °F 67% 30.03 in 10.0 mi East 15.0 mph - N/A   Partly Cloudy
9:53 AM 86.0 °F 92.2 °F 72.0 °F 63% 30.04 in 10.0 mi East 19.6 mph - N/A   Mostly Cloudy
10:17 AM 84.0 °F 89.6 °F 72.0 °F 67% 30.04 in 10.0 mi East 23.0 mph 29.9 mph N/A   Mostly Cloudy
10:53 AM 84.9 °F 90.1 °F 71.1 °F 63% 30.04 in 10.0 mi East 23.0 mph 28.8 mph N/A   Mostly Cloudy
11:53 AM 88.0 °F 94.7 °F 72.0 °F 59% 30.03 in 10.0 mi East 18.4 mph - N/A   Mostly Cloudy
12:53 PM 84.9 °F 89.4 °F 70.0 °F 61% 30.01 in 10.0 mi East 18.4 mph 28.8 mph N/A   Mostly Cloudy
1:53 PM 89.1 °F 95.0 °F 71.1 °F 55% 29.99 in 10.0 mi ESE 21.9 mph 32.2 mph N/A   Mostly Cloudy
2:53 PM 86.0 °F 91.5 °F 71.1 °F 61% 29.96 in 10.0 mi East 19.6 mph 32.2 mph N/A   Mostly Cloudy
3:53 PM 86.0 °F 90.7 °F 70.0 °F 59% 29.96 in 10.0 mi East 25.3 mph 33.4 mph N/A   Mostly Cloudy
4:53 PM 86.0 °F 90.7 °F 70.0 °F 59% 29.94 in 10.0 mi East 21.9 mph 28.8 mph N/A   Mostly Cloudy
5:53 PM 84.9 °F 88.8 °F 69.1 °F 59% 29.94 in 10.0 mi ESE 13.8 mph 26.5 mph N/A   Mostly Cloudy
6:53 PM 82.9 °F 86.5 °F 69.1 °F 63% 29.95 in 10.0 mi East 16.1 mph 24.2 mph N/A   Mostly Cloudy
7:53 PM 82.9 °F 87.5 °F 71.1 °F 67% 29.96 in 10.0 mi ESE 15.0 mph - N/A   Mostly Cloudy
8:53 PM 84.0 °F 88.4 °F 70.0 °F 63% 29.97 in 10.0 mi East 16.1 mph - N/A   Mostly Cloudy
9:53 PM 82.9 °F 87.5 °F 71.1 °F 67% 29.99 in 10.0 mi ESE 12.7 mph - 0.00 in   Scattered Clouds
10:53 PM 80.1 °F 83.8 °F 72.0 °F 76% 30.00 in 8.0 mi East 8.1 mph - 0.02 in   Mostly Cloudy
11:53 PM 82.0 °F 87.4 °F 73.0 °F 74% 29.99 in 10.0 mi ESE 11.5 mph - N/A   Scattered Clouds